Vorticity
15 14 13 12 11 9 8 7 7 8 10 14 17 18 16 15 15 16 19 17 16 14 13 12 10 8 7 5 6 10 16 19 20 20 19 16 15 15 17 19 22 24 27 28 29 30 30 28 26 25 24 24 22 20 19 13 -7 -23 -20 52 63 27 -41 -33 -14 3 9 13 18 20 18 10 5 3 4 4 6 7 10 12 10 7 4 6 7 6
16 15 15 13 11 10 9 8 7 8 10 13 17 18 17 15 15 16 20 21 20 17 13 11 10 9 8 6 5 7 13 17 19 19 18 15 14 14 16 18 20 22 24 25 26 27 27 27 26 25 24 24 22 19 17 6 -13 -16 22 72 57 4 -58 -30 -6 11 19 23 21 16 9 4 4 4 3 3 5 8 11 11 8 4 0 4 9 13
17 16 15 13 12 10 9 8 7 7 8 12 16 18 16 13 13 15 20 24 24 20 13 9 8 8 8 6 5 6 10 16 18 19 20 16 13 13 14 16 18 20 21 22 23 24 25 25 25 24 23 20 17 14 11 -4 -12 2 57 73 34 -24 -59 -16 11 24 27 21 11 3 -1 2 6 7 5 4 7 10 12 10 6 3 2 6 13 18
16 16 14 13 12 10 10 9 8 7 8 11 15 17 16 12 11 12 17 24 26 23 15 8 6 7 7 7 7 8 11 16 19 20 21 19 15 12 11 13 15 16 17 19 20 22 23 24 24 24 22 18 14 9 5 -6 -6 18 76 64 13 -37 -43 5 28 31 20 5 -3 -6 -3 4 9 12 10 10 11 12 10 8 7 6 6 10 16 21
15 15 14 13 13 12 10 10 9 8 8 10 13 16 17 13 11 10 13 19 23 23 18 10 7 6 5 6 8 11 14 17 20 21 23 23 19 14 9 10 11 12 13 14 15 17 18 19 20 21 21 17 11 5 2 -1 6 31 80 50 5 -30 -26 17 31 23 3 -8 -9 -3 4 10 14 15 14 15 14 11 7 7 8 8 9 13 18 21
13 14 14 14 14 13 12 11 10 9 8 10 13 15 17 15 13 12 12 13 16 18 19 14 10 7 5 6 8 11 16 18 20 22 24 26 25 21 13 8 7 8 8 8 8 9 10 10 11 12 12 9 3 2 11 12 18 34 65 34 -0 -21 -13 16 21 8 -13 -15 -6 6 14 15 15 15 17 18 14 8 4 6 8 11 14 17 20 22
12 13 14 15 15 14 13 13 12 10 10 10 12 13 16 16 16 14 12 11 11 13 15 15 13 11 9 9 9 10 12 15 18 21 25 28 28 27 22 14 8 5 4 4 4 3 3 3 2 1 2 5 6 14 36 29 26 31 46 18 -6 -16 -4 16 14 2 -12 -6 6 14 14 13 14 17 22 17 9 4 4 7 12 16 21 22 22 21
11 12 14 15 15 15 15 15 14 13 11 11 11 13 14 16 17 16 15 12 11 10 12 13 13 13 13 13 11 9 8 10 13 18 23 27 29 29 28 24 18 13 8 7 7 7 6 3 2 6 17 27 33 40 53 33 24 23 25 7 -6 -8 8 18 15 7 1 6 11 13 12 13 17 21 20 10 5 5 8 13 17 21 23 23 22 20
9 11 13 14 15 15 15 16 16 15 13 13 12 13 13 14 16 16 16 15 14 13 13 13 13 14 15 15 13 10 7 7 9 13 18 24 27 28 28 29 28 26 22 20 20 19 16 13 19 34 60 64 60 51 39 18 13 14 14 4 1 5 17 10 4 -0 -1 2 8 14 19 23 25 23 13 4 2 4 9 16 22 24 24 25 27 26
8 9 10 12 14 15 15 16 16 16 16 15 14 13 13 13 14 15 16 17 17 16 16 15 15 15 16 15 14 11 8 7 7 9 12 17 21 24 24 24 25 25 24 24 26 28 27 27 35 49 65 66 58 42 17 8 11 15 13 10 12 15 11 -5 -12 -11 -2 13 23 26 22 19 21 20 11 4 1 2 8 17 23 26 25 27 32 32
5 7 8 9 11 13 15 16 16 16 17 17 16 15 13 13 12 13 14 15 17 18 20 19 19 18 18 17 15 13 10 8 8 8 8 10 13 16 19 19 18 16 13 12 15 20 25 29 37 43 42 43 43 39 29 26 25 23 18 15 13 6 -6 -12 -9 2 17 28 32 27 12 -3 3 15 16 11 8 8 12 18 22 22 18 25 32 31
2 3 4 5 6 8 11 13 15 16 17 18 18 18 16 13 12 11 10 12 14 17 21 23 23 22 21 20 18 15 12 11 9 8 8 7 7 8 9 13 15 15 12 10 11 14 18 26 34 39 36 31 31 33 37 35 28 19 12 6 -1 -7 -9 1 12 21 25 24 21 15 1 -13 -7 6 13 11 10 11 15 20 21 17 8 19 30 29
2 2 2 2 3 4 6 8 10 12 15 18 19 19 17 15 13 11 10 10 11 13 17 21 24 24 23 23 22 19 16 13 12 10 8 7 6 5 3 5 8 10 10 13 18 25 32 33 36 36 31 22 18 17 21 21 16 9 1 -2 -2 2 10 18 20 19 17 16 13 6 -10 -18 -11 -0 3 5 9 13 17 23 24 19 8 17 30 31
3 3 2 2 2 2 2 4 5 8 10 13 16 18 18 17 16 14 12 11 10 10 12 15 19 21 22 23 24 24 20 17 14 13 12 11 11 10 7 4 5 6 3 4 13 26 39 40 37 33 27 19 15 15 17 14 10 5 2 5 10 14 18 17 15 13 13 11 6 0 -7 -6 1 9 14 17 20 22 24 26 26 24 17 23 36 38
2 3 3 3 3 3 2 3 4 5 7 9 11 14 16 18 18 18 16 14 12 11 10 10 12 14 17 20 24 26 25 21 18 17 16 17 19 22 23 15 14 13 7 2 6 17 35 42 38 31 26 23 20 17 16 13 10 9 11 11 10 8 6 9 10 11 8 8 10 12 14 18 21 25 28 30 29 26 24 23 23 23 23 33 44 44
3 4 5 5 5 4 4 3 3 4 4 5 6 8 12 15 17 18 19 18 16 14 12 9 8 8 10 13 17 22 25 24 22 21 21 22 26 31 39 37 33 28 19 8 5 11 29 43 40 30 21 18 15 13 10 8 9 10 9 4 -0 -3 -2 3 3 0 -6 -10 -8 -1 10 8 8 11 18 24 24 21 16 14 12 11 12 26 42 49
3 5 5 5 5 5 5 4 4 3 3 3 3 5 7 9 12 15 18 19 19 19 17 14 10 6 5 6 8 12 18 20 21 21 22 22 25 29 37 45 48 44 31 14 5 5 18 32 33 25 14 8 2 -4 -7 -2 3 5 2 -4 -7 -6 0 8 10 6 -2 -15 -22 -23 -14 -8 -6 -5 2 16 22 21 13 7 4 2 0 7 23 37
3 4 4 5 5 5 4 4 4 4 3 3 3 3 4 5 7 10 13 16 18 20 20 19 16 11 6 4 3 4 7 10 13 16 17 18 19 21 26 36 47 54 51 29 13 7 13 17 16 13 10 1 -10 -20 -22 -4 6 8 0 -6 -3 5 18 20 22 21 18 3 -11 -19 -15 -6 -8 -13 -10 5 15 18 15 13 11 10 9 8 10 17
2 3 3 4 4 3 3 4 4 4 4 4 4 4 4 4 4 6 7 10 13 16 18 19 19 18 14 8 5 4 3 4 6 8 10 10 12 14 18 26 37 50 62 53 37 23 24 18 11 4 0 -4 -4 1 17 29 27 13 -5 -12 -14 -10 -1 4 10 15 20 15 8 4 7 4 -6 -15 -14 -2 5 8 11 18 25 30 33 27 20 16
2 2 3 2 2 2 3 4 4 4 4 4 4 4 4 4 4 4 5 6 8 10 13 15 17 18 18 15 12 8 6 4 5 6 6 6 6 8 11 18 27 38 51 53 44 29 15 8 5 4 4 9 18 28 39 38 30 17 1 -5 -10 -13 -18 -13 -8 -3 2 5 9 13 19 8 -4 -12 -12 -7 -5 -3 2 12 22 30 37 36 32 25
2 3 3 2 1 1 2 2 3 3 4 4 5 5 5 5 5 4 4 4 6 7 9 11 13 16 17 17 16 14 12 9 8 8 9 7 6 5 6 11 19 28 36 39 33 19 -3 -10 -7 1 10 14 18 22 25 23 18 11 4 4 8 13 15 7 -2 -10 -16 -5 10 21 21 10 1 -6 -10 -13 -14 -12 -6 2 8 14 19 24 25 24
2 2 2 2 2 2 1 1 1 2 2 3 4 5 6 6 6 5 4 4 4 6 7 8 10 11 13 16 16 16 15 12 11 11 13 11 8 6 5 8 13 20 26 26 24 16 0 -9 -7 -0 4 -0 -3 -2 1 4 4 1 -4 -5 -1 6 13 16 12 4 -3 6 17 25 22 12 2 -6 -13 -16 -16 -15 -11 -5 1 6 10 10 11 12
3 2 2 2 2 2 1 0 0 0 1 2 3 4 5 6 6 6 5 4 4 4 5 6 7 8 10 13 14 15 16 14 13 13 14 13 10 6 4 7 11 16 21 21 21 19 14 8 5 2 -1 -4 -7 -8 -7 -4 -2 -1 -1 -2 -3 -2 -0 6 11 14 14 16 18 19 15 7 -2 -10 -15 -15 -15 -14 -12 -8 -4 1 5 8 9 10
4 3 2 2 2 1 1 0 0 -0 0 1 2 2 4 5 6 6 6 5 5 4 5 5 6 7 8 10 12 13 15 14 13 13 14 14 11 7 4 6 10 15 20 20 19 17 15 13 11 8 5 3 1 -1 -2 -2 -1 -0 1 1 -1 -3 -4 -0 4 9 13 14 13 10 5 -1 -7 -10 -12 -10 -9 -8 -8 -7 -5 -2 2 5 8 11
3 3 3 2 2 2 1 1 0 -0 -0 0 1 2 2 4 5 6 6 7 6 6 5 5 5 6 6 7 9 10 12 12 13 13 13 13 12 10 10 9 12 16 20 22 22 21 18 15 14 13 10 8 6 4 3 3 5 6 7 8 7 6 4 3 3 4 6 6 6 4 1 -2 -5 -6 -5 -2 -1 -1 -2 -2 -2 -1 2 6 9 12
4 3 3 3 3 2 2 1 1 0 0 0 1 2 2 3 4 5 6 7 7 6 5 5 5 5 5 6 7 8 9 10 11 12 12 12 12 11 12 12 13 14 17 20 24 27 28 22 19 16 15 13 13 13 14 16 19 22 25 25 26 25 24 22 18 13 7 5 4 5 6 6 6 5 4 5 5 4 4 2 2 2 4 8 11 13
3 3 3 3 3 2 2 2 1 1 1 1 2 2 3 4 4 4 6 6 6 6 5 6 6 6 5 5 6 6 7 7 9 11 12 11 11 12 12 12 11 11 12 14 17 21 26 27 25 23 21 21 21 21 23 24 24 24 24 25 25 26 26 27 26 23 18 13 11 11 12 12 12 11 10 9 9 9 8 6 6 6 9 12 14 15
3 3 3 3 2 2 2 2 1 1 2 2 3 3 4 3 3 4 5 5 5 5 6 6 6 6 5 5 5 6 6 6 7 8 10 10 11 12 12 11 10 10 9 9 10 10 12 15 17 18 17 16 15 13 12 10 9 9 8 9 10 12 13 16 17 18 18 17 16 16 16 16 16 16 15 15 14 13 12 10 10 11 13 15 16 17
3 3 3 3 3 2 2 2 2 2 2 3 3 3 4 3 3 4 4 4 5 6 6 7 7 6 6 5 5 5 5 6 6 7 7 9 10 11 11 11 10 10 9 8 8 8 8 7 6 6 6 5 4 3 2 2 2 2 2 3 4 5 6 8 9 10 12 13 13 14 15 16 16 17 17 16 15 14 12 12 12 13 14 16 16 17
4 3 3 3 3 3 2 2 2 2 3 3 3 3 3 3 4 4 4 4 5 6 6 6 7 7 6 6 6 6 6 6 6 6 5 7 8 9 10 10 10 10 10 9 9 9 10 10 9 7 6 6 6 5 4 3 2 2 2 2 2 3 4 5 6 7 8 8 9 9 9 9 10 11 11 11 11 11 11 11 12 13 14 15 15 16
4 4 4 3 3 3 3 3 3 2 3 3 3 3 3 4 5 5 5 5 5 6 6 6 6 7 6 6 6 6 6 6 6 5 4 5 6 8 9 9 9 9 10 11 10 10 10 10 11 11 11 12 11 11 10 8 7 6 5 4 3 2 2 2 3 4 5 6 6 6 5 5 5 6 7 7 8 9 10 10 11 12 13 13 14 15
4 4 4 4 4 4 4 3 3 3 3 3 2 3 3 4 5 6 6 5 5 5 6 6 6 7 7 6 6 6 6 6 6 5 4 4 4 6 6 7 7 8 8 10 10 11 10 10 10 10 12 13 13 14 14 14 14 13 12 10 8 7 6 3 2 2 1 2 2 2 2 2 3 4 5 6 7 8 9 9 10 10 11 12 12 13
5 6 6 5 5 5 4 4 4 3 3 3 2 3 4 5 6 6 6 6 5 5 6 6 6 6 6 7 7 7 6 6 6 5 5 5 4 4 5 5 6 6 7 6 7 8 9 10 10 9 9 10 11 12 13 15 16 16 16 15 13 13 12 10 7 5 3 2 2 2 1 1 1 1 2 4 5 6 7 8 9 9 10 11 11 12
6 6 6 6 6 6 5 5 4 4 4 3 3 3 4 6 6 6 6 6 5 5 5 6 6 6 6 6 6 6 6 6 5 5 4 5 5 4 4 4 4 6 6 6 5 5 4 6 8 8 8 7 8 8 10 11 13 14 15 15 15 14 14 14 13 12 11 9 8 7 6 5 4 3 3 3 4 5 6 7 8 8 9 10 10 11
8 8 7 7 7 6 6 6 5 4 4 4 4 4 5 6 7 7 6 6 5 5 5 5 5 6 6 6 6 6 6 6 5 5 4 5 5 4 4 3 4 4 4 5 5 4 3 4 4 6 7 6 5 5 6 8 9 10 10 12 13 13 13 14 14 14 14 13 13 12 11 10 9 8 7 7 6 6 6 7 7 8 8 9 9 10
10 10 9 8 8 7 7 6 6 5 5 5 5 6 6 7 7 7 6 6 6 5 5 5 5 5 6 6 6 7 6 6 6 6 5 5 5 4 4 4 4 4 3 4 4 4 4 4 4 4 4 6 6 5 5 5 5 6 6 8 9 10 11 12 13 13 14 14 14 14 14 13 12 12 10 10 9 8 8 7 7 8 8 8 9 9
11 11 10 10 9 9 8 8 8 7 7 7 7 7 8 8 8 7 6 6 6 5 5 5 4 4 5 5 6 6 6 6 6 6 6 6 6 5 4 4 4 4 3 4 4 4 4 5 5 4 4 6 7 8 8 6 5 5 6 7 8 9 10 11 11 12 13 13 14 14 14 13 13 12 12 11 10 10 9 8 8 8 8 9 9 10
12 12 12 12 12 11 11 11 10 10 9 8 8 8 8 8 8 7 6 6 5 5 5 5 5 4 4 4 5 5 6 6 6 6 6 6 6 6 5 5 4 4 4 4 4 4 5 5 5 5 5 5 6 7 8 8 8 8 8 7 8 8 9 10 10 11 12 13 13 13 14 13 13 13 12 12 12 12 10 8 7 7 8 9 10 10
12 12 12 13 13 13 13 13 12 11 10 10 9 9 8 8 7 6 5 5 5 5 5 5 5 5 4 4 4 4 5 6 6 6 6 6 7 6 6 5 5 4 4 4 4 4 4 4 5 5 5 5 6 6 6 6 7 8 8 7 7 7 8 9 10 11 12 13 13 14 14 14 14 13 13 13 13 12 11 8 6 6 7 8 8 9
11 12 12 13 13 13 12 11 11 10 10 10 10 9 8 7 6 6 4 4 4 4 5 5 4 4 4 4 4 4 4 5 6 6 6 6 7 7 7 6 6 5 5 4 4 4 4 4 4 5 4 4 5 6 5 5 5 5 6 7 7 8 8 8 9 10 12 12 13 14 15 15 15 15 14 13 13 12 10 7 6 5 5 5 6 6
10 10 11 11 10 10 10 9 9 9 8 8 8 8 7 6 6 5 4 4 5 5 5 5 5 5 5 5 5 5 5 5 5 5 6 6 6 7 7 7 7 6 6 5 5 4 4 4 4 5 4 4 4 4 4 4 4 4 4 5 7 8 7 7 7 8 10 11 13 14 14 15 15 15 15 14 13 12 11 9 7 5 4 3 3 3
9 8 8 6 6 6 6 6 6 6 6 5 4 4 4 4 4 4 4 5 5 5 6 6 6 6 6 6 6 5 5 5 5 5 5 6 6 6 7 7 7 7 7 6 6 5 4 4 4 4 5 4 4 4 4 4 4 4 4 4 5 6 6 6 6 7 8 10 11 12 13 14 15 15 15 15 15 14 12 11 9 7 5 4 2 1
8 6 4 4 3 3 3 3 4 4 4 3 2 2 1 2 2 3 4 4 5 5 5 6 6 6 6 6 6 6 6 5 5 5 5 6 6 6 6 7 7 7 7 7 6 6 5 5 4 4 4 4 4 3 4 4 4 4 4 4 4 4 6 6 6 6 8 8 9 10 11 12 14 15 16 17 17 16 14 13 11 9 7 5 4 2
6 5 4 4 4 4 4 3 3 2 2 2 2 1 1 2 2 2 3 4 4 4 5 6 6 6 7 7 7 6 6 6 6 5 5 6 6 6 6 6 7 7 7 7 7 7 6 6 5 4 5 4 4 4 3 3 4 4 4 4 4 4 5 6 5 4 6 7 9 10 10 11 12 14 16 17 18 18 17 16 14 12 10 8 6 5
4 4 4 3 3 3 2 1 1 1 1 1 1 1 2 2 2 2 3 3 4 4 5 5 5 6 7 7 7 7 7 7 6 6 6 6 6 6 6 6 7 7 7 7 7 8 8 7 6 6 5 5 4 4 3 4 4 4 4 4 4 4 5 5 4 4 5 6 7 9 10 10 10 12 15 16 17 18 18 18 17 15 14 12 10 9
3 2 2 1 1 0 -1 -0 -0 -0 -0 0 1 2 2 3 3 4 4 4 5 5 5 5 5 6 7 7 7 8 8 7 7 7 7 6 6 6 6 6 6 7 7 7 7 7 7 7 7 7 6 6 5 4 4 4 4 4 4 4 4 4 4 4 4 4 4 5 6 7 7 8 10 13 15 16 17 18 19 19 19 17 16 14 13 12
1 -0 -1 -1 -1 -1 -1 0 0 0 0 1 2 3 3 4 4 5 6 6 6 7 6 6 7 8 8 7 7 8 8 8 8 7 7 7 7 7 6 6 6 6 6 7 7 7 7 7 7 7 7 6 6 5 4 4 4 4 4 4 4 4 4 4 4 4 4 5 6 6 5 7 10 13 15 15 17 18 19 20 20 20 18 16 15 14
-0 -0 -0 -0 -0 0 1 1 1 1 2 2 3 4 4 5 5 6 7 7 8 8 8 8 9 10 9 9 9 9 8 9 9 8 7 7 7 7 7 7 6 6 6 6 6 6 7 7 7 7 7 7 6 6 5 5 4 4 4 4 4 4 4 4 4 4 4 4 5 5 5 7 8 10 10 13 16 17 18 19 20 21 20 18 16 16
1 1 2 2 2 2 2 2 2 2 3 4 5 5 6 6 6 7 8 8 9 9 10 10 10 10 10 10 10 10 9 9 9 9 8 7 7 7 7 7 7 7 6 6 6 6 6 6 6 6 7 7 7 6 6 5 5 4 4 4 4 4 4 3 3 3 3 4 4 5 6 8 9 9 8 11 14 16 16 17 19 21 21 19 18 17
2 2 3 3 3 3 3 4 4 4 4 5 6 6 7 7 7 8 9 10 10 11 12 12 12 11 11 10 10 10 10 10 10 9 8 7 7 7 7 8 8 8 8 7 7 7 7 6 6 6 6 6 6 7 6 6 6 5 5 5 4 4 4 3 3 3 4 4 4 5 5 7 8 8 9 12 13 15 16 17 18 20 21 20 19 19
3 3 3 3 4 4 4 5 5 5 6 6 6 7 8 8 9 9 10 11 12 13 14 13 13 13 12 11 11 10 10 10 10 9 9 8 8 8 7 7 7 8 8 7 8 8 8 7 7 6 5 5 6 6 6 7 7 6 5 5 5 4 4 3 3 4 4 4 4 5 5 6 6 7 9 10 11 13 16 18 19 19 19 20 20 19
Height
3020 3019 3018 3016 3015 3013 3012 3010 3009 3006 3004 3003 3001 2999 2997 2995 2993 2991 2989 2988 2986 2984 2982 2981 2979 2978 2976 2974 2972 2970 2967 2965 2963 2962 2960 2957 2955 2954 2954 2955 2955 2956 2957 2958 2959 2960 2961 2963 2964 2965 2966 2968 2970 2973 2976 2980 2981 2981 2981 2984 2990 2995 2996 3000 3003 3006 3008 3011 3014 3017 3019 3022 3024 3025 3026 3027 3028 3030 3031 3032 3034 3036 3037 3037 3037 3037
3021 3019 3018 3017 3015 3014 3012 3010 3009 3007 3004 3003 3001 2999 2998 2996 2994 2992 2990 2988 2986 2985 2983 2982 2980 2979 2977 2976 2974 2971 2969 2967 2965 2964 2962 2961 2959 2958 2957 2957 2958 2959 2960 2961 2962 2963 2964 2966 2967 2969 2970 2972 2974 2977 2979 2981 2981 2982 2983 2987 2992 2995 2997 3000 3003 3006 3009 3012 3015 3018 3020 3021 3023 3024 3025 3026 3028 3029 3030 3032 3034 3035 3036 3036 3035 3036
3022 3020 3019 3017 3016 3014 3013 3011 3009 3007 3005 3003 3001 3000 2998 2997 2995 2993 2991 2989 2987 2985 2984 2983 2982 2980 2979 2977 2975 2973 2971 2969 2967 2966 2964 2964 2962 2961 2960 2960 2961 2962 2963 2964 2964 2966 2967 2969 2970 2972 2974 2976 2978 2979 2980 2981 2982 2984 2986 2989 2993 2996 2999 3001 3004 3006 3010 3014 3016 3018 3019 3020 3021 3022 3023 3024 3026 3029 3031 3033 3034 3034 3034 3034 3035 3035
3022 3021 3019 3018 3016 3014 3013 3011 3009 3007 3006 3004 3003 3001 2999 2998 2996 2994 2992 2990 2988 2987 2985 2984 2983 2982 2980 2979 2977 2974 2972 2970 2969 2968 2966 2965 2965 2964 2964 2964 2964 2964 2965 2966 2967 2968 2969 2971 2972 2974 2976 2978 2980 2981 2981 2982 2983 2986 2989 2992 2994 2997 3000 3003 3005 3009 3012 3015 3016 3016 3017 3018 3019 3021 3023 3025 3028 3030 3032 3033 3033 3033 3034 3034 3034 3035
3023 3021 3020 3018 3017 3015 3014 3012 3010 3008 3007 3005 3004 3002 3000 2999 2997 2995 2993 2991 2989 2988 2987 2985 2984 2983 2981 2980 2978 2976 2974 2972 2971 2970 2969 2968 2967 2967 2966 2966 2966 2967 2968 2969 2969 2970 2971 2973 2974 2976 2977 2979 2981 2982 2982 2983 2985 2988 2992 2995 2998 3000 3003 3005 3008 3011 3013 3013 3013 3014 3015 3018 3020 3022 3024 3027 3029 3030 3031 3031 3032 3032 3033 3033 3034 3035
3024 3022 3020 3019 3018 3016 3014 3013 3011 3009 3008 3006 3004 3003 3001 2999 2998 2996 2994 2993 2991 2989 2988 2987 2986 2984 2983 2981 2980 2978 2976 2974 2973 2972 2971 2970 2969 2969 2969 2969 2969 2969 2969 2970 2971 2973 2974 2975 2976 2978 2979 2980 2982 2983 2983 2984 2987 2991 2995 2998 3000 3003 3005 3007 3009 3010 3010 3011 3013 3014 3017 3019 3021 3023 3025 3027 3029 3029 3030 3031 3031 3032 3033 3033 3034 3035
3024 3023 3021 3020 3019 3017 3016 3014 3013 3011 3009 3008 3006 3004 3002 3001 2999 2997 2996 2994 2992 2991 2989 2988 2987 2986 2985 2983 2982 2980 2978 2977 2975 2974 2973 2972 2971 2971 2970 2971 2971 2972 2972 2973 2973 2975 2976 2978 2979 2980 2981 2982 2983 2984 2985 2987 2989 2993 2997 2999 3001 3003 3005 3007 3008 3009 3009 3012 3014 3017 3019 3020 3022 3024 3025 3027 3028 3029 3030 3030 3031 3032 3033 3034 3035 3036
3026 3024 3023 3021 3020 3018 3017 3015 3014 3013 3011 3009 3007 3005 3004 3002 3000 2999 2997 2995 2994 2992 2991 2990 2989 2988 2987 2985 2984 2982 2981 2979 2978 2976 2975 2974 2973 2973 2972 2972 2973 2973 2974 2974 2975 2976 2977 2979 2980 2981 2981 2982 2983 2984 2986 2988 2990 2994 2997 2999 3001 3003 3005 3007 3008 3010 3013 3014 3016 3017 3018 3020 3021 3023 3025 3027 3028 3029 3029 3030 3031 3032 3034 3034 3035 3036
3027 3026 3024 3023 3021 3020 3019 3017 3015 3014 3012 3010 3009 3007 3005 3004 3002 3000 2999 2997 2995 2994 2992 2991 2990 2989 2988 2987 2985 2984 2983 2981 2980 2979 2978 2977 2976 2975 2975 2974 2974 2974 2975 2975 2976 2976 2977 2978 2979 2980 2980 2980 2981 2983 2985 2987 2990 2994 2996 2999 3001 3004 3006 3009 3010 3012 3013 3014 3015 3016 3018 3019 3021 3023 3025 3026 3027 3028 3029 3030 3031 3033 3034 3034 3035 3036
3029 3028 3026 3024 3023 3021 3020 3018 3016 3015 3013 3012 3010 3009 3007 3005 3004 3002 3000 2999 2997 2995 2993 2992 2990 2989 2989 2988 2987 2985 2984 2983 2982 2981 2980 2979 2978 2978 2977 2977 2976 2976 2976 2976 2977 2977 2977 2977 2977 2978 2979 2980 2981 2983 2985 2988 2991 2994 2997 2999 3002 3006 3008 3009 3010 3011 3012 3013 3015 3016 3018 3020 3022 3024 3025 3026 3027 3028 3029 3030 3031 3032 3033 3034 3035 3036
3030 3029 3028 3026 3024 3023 3021 3020 3018 3016 3015 3014 3012 3010 3009 3007 3005 3003 3002 3000 2998 2996 2995 2993 2992 2991 2989 2989 2988 2987 2986 2985 2984 2983 2982 2982 2981 2980 2980 2979 2979 2979 2978 2978 2979 2979 2980 2979 2978 2978 2981 2984 2986 2987 2989 2991 2994 2996 2999 3001 3004 3006 3007 3008 3009 3011 3013 3014 3015 3016 3019 3020 3022 3024 3025 3026 3027 3028 3029 3030 3031 3032 3034 3034 3035 3037
3032 3030 3029 3028 3026 3025 3023 3022 3020 3019 3017 3016 3014 3012 3010 3008 3006 3004 3003 3001 3000 2998 2996 2995 2994 2992 2991 2990 2989 2988 2988 2986 2985 2985 2984 2984 2983 2983 2982 2982 2981 2981 2981 2981 2981 2982 2983 2983 2982 2981 2982 2986 2989 2992 2994 2996 2998 2999 3002 3004 3005 3005 3006 3008 3010 3012 3013 3014 3015 3018 3020 3022 3023 3024 3025 3026 3027 3028 3029 3030 3031 3032 3033 3034 3035 3036
3034 3032 3031 3029 3028 3027 3025 3024 3023 3021 3019 3017 3015 3013 3011 3009 3008 3006 3005 3004 3002 3000 2999 2998 2996 2994 2993 2992 2991 2990 2989 2988 2987 2987 2986 2985 2985 2984 2984 2984 2984 2984 2984 2983 2984 2984 2985 2985 2986 2986 2987 2988 2990 2993 2996 2999 3001 3003 3004 3004 3005 3007 3009 3010 3012 3013 3014 3016 3018 3021 3024 3024 3025 3025 3026 3027 3028 3028 3029 3030 3031 3032 3033 3034 3035 3036
3035 3034 3032 3031 3030 3029 3027 3026 3024 3022 3020 3018 3016 3014 3012 3011 3010 3009 3007 3006 3004 3003 3002 3000 2999 2997 2995 2994 2993 2992 2991 2990 2989 2989 2988 2987 2986 2986 2986 2986 2986 2986 2986 2986 2986 2986 2987 2988 2989 2991 2993 2994 2994 2995 2998 3000 3002 3004 3005 3006 3008 3009 3011 3012 3013 3015 3017 3019 3022 3024 3026 3026 3027 3027 3028 3028 3029 3029 3029 3029 3030 3031 3032 3033 3034 3035
3036 3035 3034 3032 3031 3029 3028 3027 3025 3023 3022 3019 3018 3016 3015 3014 3012 3011 3010 3008 3007 3005 3004 3003 3002 3000 2998 2996 2995 2994 2993 2992 2991 2990 2989 2988 2988 2988 2987 2987 2987 2987 2987 2988 2988 2988 2989 2989 2991 2994 2997 2999 3000 3000 3001 3002 3003 3004 3006 3008 3010 3011 3012 3013 3015 3018 3020 3022 3024 3025 3027 3028 3028 3029 3029 3029 3029 3029 3029 3030 3030 3031 3032 3033 3033 3034
3037 3036 3034 3033 3032 3030 3029 3028 3027 3025 3024 3022 3020 3019 3018 3016 3015 3014 3012 3011 3009 3008 3007 3006 3004 3002 3000 2999 2998 2996 2995 2994 2993 2992 2991 2990 2989 2989 2990 2990 2989 2989 2989 2989 2990 2990 2991 2992 2993 2996 2999 3002 3003 3003 3003 3004 3005 3007 3008 3009 3011 3012 3014 3016 3018 3020 3021 3023 3024 3025 3027 3028 3028 3028 3028 3028 3029 3029 3030 3030 3031 3032 3032 3033 3033 3034
3037 3036 3035 3034 3033 3032 3031 3029 3028 3027 3025 3024 3023 3021 3020 3019 3017 3016 3014 3013 3012 3011 3010 3008 3006 3004 3003 3002 3000 2999 2998 2997 2996 2995 2994 2993 2992 2992 2993 2994 2994 2993 2992 2992 2992 2993 2994 2994 2996 2999 3001 3003 3004 3004 3005 3007 3008 3009 3010 3011 3013 3015 3017 3019 3020 3021 3023 3024 3025 3026 3027 3028 3028 3028 3029 3029 3029 3029 3030 3031 3031 3032 3032 3033 3033 3034
3038 3037 3036 3035 3034 3033 3032 3031 3029 3029 3027 3026 3025 3023 3022 3021 3019 3018 3017 3016 3014 3013 3012 3010 3009 3007 3005 3004 3003 3002 3002 3001 3000 2999 2998 2996 2995 2995 2996 2996 2997 2997 2997 2996 2995 2996 2997 2999 3000 3001 3003 3005 3006 3007 3008 3009 3010 3011 3012 3013 3014 3016 3018 3019 3020 3022 3024 3026 3027 3028 3028 3028 3029 3029 3029 3029 3029 3029 3030 3031 3031 3032 3032 3033 3034 3034
3039 3038 3037 3036 3035 3034 3033 3032 3031 3030 3029 3028 3027 3025 3024 3023 3022 3020 3019 3018 3016 3015 3014 3012 3010 3009 3007 3007 3006 3005 3005 3004 3004 3004 3002 3000 2999 2999 2999 2999 2999 2999 2999 3000 3000 3001 3002 3003 3004 3005 3007 3008 3009 3010 3011 3012 3014 3014 3015 3016 3017 3018 3019 3020 3022 3023 3025 3027 3029 3029 3029 3029 3029 3030 3030 3030 3030 3031 3031 3031 3031 3031 3032 3032 3033 3034
3039 3039 3038 3037 3036 3035 3034 3033 3032 3031 3030 3029 3029 3028 3026 3025 3024 3023 3021 3020 3019 3017 3016 3014 3013 3011 3010 3009 3008 3008 3007 3008 3008 3007 3006 3004 3004 3003 3003 3003 3002 3002 3002 3004 3004 3005 3006 3007 3008 3009 3011 3012 3014 3015 3016 3018 3020 3021 3022 3022 3022 3023 3023 3024 3024 3025 3027 3028 3029 3029 3029 3029 3029 3030 3030 3030 3031 3031 3032 3032 3032 3032 3032 3033 3034 3034
3040 3039 3038 3038 3037 3036 3035 3034 3033 3033 3032 3031 3030 3029 3028 3027 3026 3025 3023 3022 3021 3019 3018 3017 3015 3014 3013 3012 3011 3010 3010 3010 3010 3009 3009 3008 3007 3006 3006 3006 3006 3006 3006 3007 3009 3010 3010 3011 3012 3013 3014 3015 3017 3018 3019 3019 3020 3021 3022 3023 3024 3025 3026 3027 3028 3028 3028 3028 3028 3029 3029 3029 3030 3030 3031 3031 3031 3032 3032 3033 3033 3033 3034 3034 3034 3035
3040 3039 3039 3038 3038 3037 3036 3035 3034 3034 3033 3033 3032 3031 3030 3029 3028 3027 3025 3024 3023 3022 3021 3019 3018 3017 3015 3014 3014 3013 3012 3012 3012 3012 3012 3011 3010 3009 3009 3010 3010 3010 3009 3010 3012 3013 3014 3014 3014 3015 3016 3017 3018 3018 3019 3019 3020 3020 3021 3022 3024 3025 3026 3028 3029 3029 3029 3029 3029 3029 3029 3030 3030 3031 3031 3031 3032 3033 3033 3034 3034 3034 3034 3035 3035 3035
3040 3040 3039 3039 3039 3038 3037 3036 3035 3035 3034 3034 3033 3032 3031 3030 3029 3028 3027 3026 3025 3024 3023 3021 3020 3019 3018 3017 3016 3016 3015 3014 3014 3014 3014 3013 3013 3012 3012 3013 3013 3013 3012 3013 3014 3015 3016 3016 3016 3017 3017 3018 3019 3019 3019 3020 3021 3022 3023 3023 3024 3024 3025 3026 3028 3029 3029 3029 3030 3030 3031 3031 3032 3031 3031 3032 3033 3033 3034 3034 3034 3034 3034 3034 3035 3035
3041 3041 3040 3040 3039 3039 3038 3037 3036 3036 3035 3034 3034 3033 3032 3032 3031 3030 3029 3028 3027 3025 3024 3024 3023 3022 3021 3020 3019 3019 3018 3017 3016 3016 3016 3015 3015 3014 3014 3015 3015 3015 3015 3015 3016 3016 3017 3018 3018 3018 3019 3019 3020 3021 3021 3022 3023 3023 3024 3024 3025 3025 3026 3027 3027 3029 3029 3030 3031 3031 3032 3032 3032 3032 3033 3033 3033 3034 3034 3034 3034 3034 3034 3034 3034 3034
3041 3041 3041 3040 3039 3039 3039 3038 3037 3036 3036 3035 3034 3034 3033 3033 3032 3031 3030 3029 3028 3027 3026 3026 3025 3024 3024 3023 3022 3021 3020 3019 3018 3018 3018 3018 3017 3017 3016 3017 3017 3017 3017 3017 3018 3018 3019 3019 3019 3020 3020 3021 3022 3023 3023 3024 3024 3025 3025 3025 3026 3026 3027 3027 3028 3028 3029 3030 3031 3032 3032 3033 3033 3033 3033 3034 3034 3034 3034 3034 3034 3034 3034 3034 3034 3034
3042 3041 3041 3040 3040 3039 3039 3039 3038 3037 3037 3036 3035 3035 3034 3033 3033 3032 3031 3030 3029 3029 3029 3028 3028 3027 3026 3025 3024 3024 3023 3022 3021 3020 3020 3020 3019 3019 3019 3019 3019 3019 3019 3019 3019 3020 3020 3020 3021 3021 3022 3022 3023 3024 3024 3025 3025 3026 3026 3026 3026 3027 3027 3028 3028 3029 3029 3030 3030 3031 3032 3032 3033 3033 3034 3034 3034 3034 3034 3034 3034 3034 3034 3034 3034 3034
3042 3041 3041 3041 3040 3040 3039 3039 3039 3038 3038 3037 3036 3035 3034 3034 3034 3034 3033 3032 3031 3031 3031 3030 3029 3029 3028 3027 3026 3025 3025 3024 3024 3023 3022 3022 3022 3021 3021 3021 3021 3021 3021 3021 3021 3022 3022 3022 3023 3023 3023 3024 3024 3024 3025 3025 3026 3026 3026 3027 3027 3027 3028 3028 3029 3029 3030 3030 3031 3031 3031 3032 3032 3033 3033 3033 3033 3034 3034 3034 3034 3034 3034 3033 3033 3033
3042 3042 3041 3041 3041 3040 3040 3040 3039 3039 3038 3038 3037 3036 3036 3035 3035 3035 3034 3033 3033 3033 3032 3032 3031 3030 3029 3029 3028 3027 3027 3026 3026 3025 3024 3024 3024 3024 3023 3023 3023 3023 3023 3023 3023 3023 3024 3024 3024 3024 3025 3025 3025 3025 3026 3026 3026 3026 3027 3027 3028 3028 3028 3029 3029 3030 3030 3030 3031 3031 3032 3032 3032 3033 3033 3033 3033 3034 3034 3034 3034 3033 3033 3033 3033 3033
3042 3042 3042 3041 3041 3041 3040 3040 3040 3039 3039 3038 3038 3037 3037 3037 3036 3035 3035 3034 3034 3034 3033 3033 3032 3031 3030 3030 3029 3029 3029 3028 3028 3027 3027 3026 3026 3025 3025 3025 3024 3024 3025 3025 3025 3025 3025 3025 3026 3026 3026 3026 3026 3026 3026 3027 3027 3027 3028 3028 3028 3029 3029 3029 3029 3030 3030 3030 3031 3031 3031 3032 3032 3033 3033 3033 3033 3033 3033 3033 3033 3033 3033 3033 3032 3032
3042 3042 3042 3041 3041 3041 3041 3040 3040 3040 3039 3039 3039 3038 3038 3038 3037 3036 3036 3035 3035 3034 3034 3034 3033 3032 3032 3031 3031 3031 3030 3030 3029 3029 3029 3028 3028 3027 3027 3027 3027 3026 3026 3026 3026 3027 3027 3027 3027 3027 3027 3027 3027 3027 3027 3028 3028 3028 3028 3029 3029 3029 3029 3029 3030 3030 3030 3031 3031 3031 3031 3032 3032 3032 3033 3033 3033 3033 3033 3033 3032 3032 3032 3032 3032 3032
3042 3042 3042 3042 3041 3041 3041 3041 3040 3040 3040 3039 3039 3039 3039 3038 3038 3037 3037 3036 3035 3035 3035 3034 3034 3033 3033 3033 3032 3032 3031 3031 3030 3030 3030 3030 3029 3029 3029 3029 3029 3029 3028 3028 3028 3028 3028 3028 3028 3028 3028 3028 3028 3028 3028 3028 3029 3029 3029 3029 3029 3029 3029 3030 3030 3030 3030 3031 3031 3031 3031 3032 3032 3032 3032 3032 3032 3032 3032 3032 3032 3032 3032 3032 3031 3031
3041 3041 3042 3041 3041 3041 3041 3041 3041 3040 3040 3040 3040 3039 3039 3039 3038 3038 3037 3037 3036 3035 3035 3035 3034 3034 3034 3034 3033 3033 3032 3032 3032 3032 3032 3031 3031 3030 3030 3030 3030 3030 3030 3030 3029 3029 3029 3029 3029 3029 3029 3029 3029 3029 3029 3029 3029 3029 3029 3029 3029 3029 3030 3030 3030 3030 3030 3031 3031 3031 3031 3031 3032 3032 3032 3032 3032 3031 3031 3031 3031 3031 3031 3031 3031 3031
3041 3041 3041 3041 3041 3041 3041 3041 3041 3041 3040 3040 3040 3040 3039 3039 3039 3038 3038 3037 3037 3036 3036 3035 3035 3035 3034 3034 3034 3034 3033 3033 3033 3033 3033 3032 3032 3032 3032 3031 3031 3031 3031 3031 3031 3031 3030 3030 3030 3030 3030 3030 3030 3030 3030 3030 3030 3030 3030 3030 3030 3030 3030 3030 3030 3030 3030 3030 3030 3031 3031 3031 3031 3031 3031 3031 3031 3031 3031 3031 3031 3031 3031 3031 3031 3031
3040 3041 3041 3041 3041 3041 3041 3041 3041 3041 3041 3040 3040 3040 3040 3039 3039 3039 3038 3038 3037 3037 3037 3036 3036 3035 3035 3035 3035 3034 3034 3034 3034 3034 3033 3033 3033 3033 3033 3032 3032 3032 3032 3032 3031 3031 3031 3031 3031 3031 3031 3031 3030 3030 3030 3030 3030 3030 3030 3030 3030 3030 3030 3030 3030 3030 3030 3030 3030 3030 3030 3030 3030 3030 3031 3030 3030 3030 3030 3030 3030 3030 3030 3030 3031 3031
3040 3040 3040 3040 3040 3041 3041 3041 3041 3041 3041 3040 3040 3040 3040 3039 3039 3039 3039 3038 3038 3037 3037 3037 3036 3036 3036 3035 3035 3035 3034 3034 3034 3034 3034 3034 3034 3033 3033 3033 3033 3033 3033 3033 3032 3032 3032 3031 3031 3031 3031 3031 3031 3031 3031 3031 3030 3030 3030 3030 3030 3030 3030 3030 3030 3030 3030 3030 3030 3030 3030 3030 3030 3030 3030 3030 3030 3030 3030 3029 3030 3030 3030 3030 3030 3030
3039 3039 3040 3040 3040 3040 3040 3040 3040 3040 3040 3040 3040 3040 3040 3040 3039 3039 3039 3039 3038 3038 3038 3037 3037 3036 3036 3036 3036 3035 3035 3035 3035 3034 3034 3034 3034 3034 3034 3034 3034 3034 3034 3033 3033 3033 3033 3032 3032 3032 3031 3031 3031 3031 3031 3031 3031 3030 3030 3030 3030 3030 3030 3030 3030 3030 3030 3030 3030 3030 3030 3029 3029 3029 3029 3029 3029 3029 3029 3029 3029 3029 3029 3029 3030 3030
3039 3039 3039 3039 3039 3040 3040 3040 3040 3040 3040 3040 3040 3040 3040 3040 3039 3039 3039 3039 3039 3038 3038 3038 3037 3037 3037 3036 3036 3036 3036 3035 3035 3035 3034 3034 3034 3034 3034 3034 3034 3034 3034 3034 3034 3034 3033 3033 3033 3033 3032 3032 3032 3032 3031 3031 3031 3031 3031 3031 3030 3030 3030 3030 3030 3030 3030 3030 3029 3029 3029 3029 3029 3029 3029 3029 3029 3029 3028 3028 3028 3029 3029 3029 3029 3029
3038 3039 3039 3039 3039 3039 3039 3039 3040 3040 3040 3040 3040 3040 3040 3040 3039 3039 3039 3039 3039 3039 3038 3038 3038 3037 3037 3037 3037 3036 3036 3036 3035 3035 3035 3035 3035 3034 3034 3034 3034 3034 3034 3034 3034 3034 3034 3034 3034 3033 3033 3033 3033 3032 3032 3032 3031 3031 3031 3031 3031 3030 3030 3030 3030 3029 3029 3029 3029 3029 3029 3028 3028 3028 3028 3028 3028 3028 3028 3028 3028 3028 3028 3028 3028 3029
3038 3038 3038 3039 3039 3039 3039 3039 3039 3039 3040 3040 3040 3040 3040 3039 3039 3039 3039 3039 3039 3039 3039 3038 3038 3038 3038 3037 3037 3037 3036 3036 3036 3035 3035 3035 3035 3035 3035 3035 3034 3034 3034 3034 3034 3034 3034 3034 3034 3034 3033 3033 3033 3033 3032 3032 3032 3031 3031 3031 3031 3030 3030 3030 3029 3029 3029 3029 3029 3028 3028 3028 3028 3027 3027 3027 3027 3027 3027 3027 3027 3027 3027 3028 3028 3028
3038 3038 3038 3038 3038 3039 3039 3039 3039 3039 3039 3039 3039 3039 3039 3039 3039 3039 3039 3039 3039 3039 3039 3039 3038 3038 3038 3037 3037 3037 3036 3036 3036 3035 3035 3035 3035 3035 3035 3035 3035 3035 3034 3034 3034 3034 3034 3034 3034 3034 3034 3033 3033 3033 3032 3032 3032 3031 3031 3031 3030 3030 3030 3029 3029 3029 3029 3028 3028 3028 3028 3027 3027 3027 3027 3027 3027 3026 3027 3026 3027 3027 3027 3027 3027 3027
3037 3038 3038 3038 3038 3038 3039 3039 3039 3039 3039 3039 3039 3039 3039 3039 3039 3039 3039 3039 3039 3039 3039 3039 3038 3038 3038 3038 3037 3037 3037 3036 3036 3035 3035 3035 3035 3035 3035 3035 3035 3035 3035 3034 3034 3034 3034 3034 3034 3034 3033 3033 3033 3033 3032 3032 3032 3031 3031 3031 3030 3030 3030 3029 3029 3029 3028 3028 3028 3027 3027 3027 3027 3026 3026 3026 3026 3026 3026 3026 3026 3026 3026 3026 3026 3026
3037 3037 3037 3038 3038 3038 3038 3038 3038 3038 3039 3039 3039 3039 3039 3039 3039 3039 3039 3039 3039 3039 3039 3039 3039 3038 3038 3038 3037 3037 3037 3036 3036 3035 3035 3035 3035 3035 3035 3035 3035 3035 3035 3034 3034 3034 3034 3034 3033 3033 3033 3033 3033 3032 3032 3032 3031 3031 3031 3030 3030 3030 3029 3029 3029 3028 3028 3028 3027 3027 3027 3026 3026 3026 3026 3025 3025 3025 3025 3025 3025 3025 3025 3025 3025 3026
3036 3037 3037 3037 3037 3038 3038 3038 3038 3038 3038 3039 3039 3039 3039 3039 3039 3039 3039 3039 3039 3039 3039 3039 3038 3038 3038 3038 3037 3037 3037 3036 3036 3035 3035 3035 3034 3034 3034 3034 3034 3034 3034 3034 3034 3034 3034 3034 3033 3033 3033 3033 3032 3032 3032 3031 3031 3031 3030 3030 3030 3029 3029 3029 3029 3028 3028 3027 3027 3027 3026 3026 3025 3025 3025 3025 3025 3024 3024 3024 3024 3024 3024 3024 3024 3024
3036 3036 3036 3037 3037 3037 3037 3037 3038 3038 3038 3038 3038 3038 3038 3038 3039 3039 3038 3038 3038 3038 3038 3038 3038 3038 3037 3037 3037 3037 3036 3036 3036 3035 3035 3034 3034 3034 3034 3034 3034 3034 3034 3034 3034 3034 3034 3033 3033 3033 3032 3032 3032 3032 3031 3031 3031 3030 3030 3030 3029 3029 3029 3028 3028 3028 3027 3027 3026 3026 3026 3025 3025 3024 3024 3024 3024 3024 3024 3024 3024 3024 3024 3024 3024 3024
3035 3035 3035 3036 3036 3036 3036 3036 3037 3037 3037 3037 3037 3037 3037 3038 3038 3038 3038 3038 3038 3038 3038 3037 3037 3037 3037 3037 3036 3036 3036 3036 3035 3035 3035 3034 3034 3034 3034 3034 3034 3034 3034 3034 3034 3033 3033 3033 3033 3032 3032 3032 3031 3031 3031 3030 3030 3030 3029 3029 3029 3029 3028 3028 3027 3027 3027 3026 3026 3025 3025 3025 3024 3024 3024 3023 3023 3023 3023 3022 3022 3022 3022 3022 3022 3022
3034 3034 3034 3035 3035 3035 3035 3035 3036 3036 3036 3036 3036 3036 3036 3036 3037 3037 3037 3037 3037 3037 3037 3037 3036 3036 3036 3036 3036 3035 3035 3035 3035 3035 3034 3034 3034 3034 3033 3033 3033 3033 3033 3033 3033 3033 3033 3032 3032 3032 3032 3031 3031 3031 3030 3030 3029 3029 3029 3029 3028 3028 3028 3027 3027 3026 3026 3026 3025 3025 3024 3024 3024 3023 3023 3023 3022 3022 3022 3021 3021 3021 3021 3021 3021 3021
3033 3033 3034 3034 3034 3034 3034 3034 3035 3035 3035 3035 3035 3035 3035 3035 3035 3035 3035 3035 3036 3036 3035 3035 3035 3035 3035 3035 3035 3034 3034 3034 3034 3034 3034 3034 3034 3033 3033 3033 3032 3032 3032 3032 3032 3032 3032 3032 3032 3031 3031 3031 3030 3030 3030 3029 3029 3029 3028 3028 3028 3027 3027 3026 3026 3026 3025 3025 3024 3024 3024 3023 3023 3023 3022 3022 3021 3021 3020 3020 3020 3020 3020 3020 3020 3020
3032 3032 3033 3033 3033 3033 3033 3034 3034 3034 3034 3034 3034 3034 3034 3034 3034 3034 3034 3034 3034 3034 3034 3034 3034 3034 3034 3034 3034 3034 3033 3033 3033 3033 3033 3033 3033 3033 3032 3032 3032 3032 3031 3031 3031 3031 3031 3031 3031 3031 3030 3030 3030 3029 3029 3029 3028 3028 3028 3027 3027 3027 3026 3026 3025 3025 3025 3024 3024 3023 3023 3023 3022 3022 3021 3021 3020 3020 3019 3019 3019 3019 3019 3019 3018 3019
3031 3031 3031 3031 3032 3032 3032 3032 3032 3033 3033 3033 3033 3033 3033 3033 3033 3033 3033 3033 3033 3033 3033 3033 3033 3033 3033 3033 3032 3032 3032 3032 3032 3032 3032 3032 3032 3032 3032 3031 3031 3031 3031 3031 3030 3030 3030 3030 3030 3029 3029 3029 3029 3029 3028 3028 3028 3027 3027 3027 3026 3026 3025 3025 3025 3024 3024 3024 3023 3023 3022 3022 3021 3021 3020 3020 3019 3019 3019 3018 3018 3018 3017 3017 3017 3017
3029 3030 3030 3030 3030 3031 3031 3031 3031 3031 3031 3031 3031 3031 3031 3031 3031 3032 3032 3031 3031 3031 3031 3031 3032 3032 3032 3031 3031 3031 3031 3031 3031 3031 3031 3031 3031 3031 3031 3030 3030 3030 3030 3030 3029 3029 3029 3029 3029 3029 3029 3028 3028 3028 3028 3027 3027 3027 3026 3026 3026 3025 3025 3024 3024 3024 3023 3023 3022 3022 3021 3021 3020 3020 3019 3019 3019 3018 3017 3017 3017 3016 3016 3016 3016 3016
3028 3029 3029 3029 3029 3029 3029 3029 3029 3030 3030 3030 3030 3030 3030 3030 3030 3030 3030 3030 3030 3030 3030 3030 3030 3030 3030 3030 3030 3029 3029 3029 3029 3029 3029 3030 3030 3030 3030 3029 3029 3029 3029 3029 3029 3028 3028 3028 3028 3028 3028 3027 3027 3027 3027 3026 3026 3026 3025 3025 3025 3024 3024 3024 3023 3023 3022 3022 3021 3021 3020 3020 3019 3019 3018 3018 3017 3017 3016 3016 3016 3015 3015 3015 3015 3015